Regional Weather Roundup
Issued by NWS Northern Indiana

Home | Current Version | Previous Version | Graphics & Text | Print | Product List | Glossary On
Versions: 1 2 3 4 5 6 7 8 9 10 11 12 13 14 15 16 17 18 19 20 21 22 23 24 25 26 27 28 29 30 31 32 33 34 35 36 37 38 39 40 41 42 43 44 45 46 47 48 49 50
000
ASUS43 KIWX 280810
RWRIWX

KIWX WEATHER ROUNDUP
NATIONAL WEATHER SERVICE NORTHERN INDIANA
300 AM EST SAT FEB 28 2015

NOTE: "FAIR" INDICATES FEW OR NO CLOUDS BELOW 12,000 FEET WITH NO
SIGNIFICANT WEATHER AND/OR OBSTRUCTIONS TO VISIBILITY.

* THESE STATIONS ARE NOT UNDER NWS QUALITY CONTROL. THEY ALSO MAY NOT
  REPORT WEATHER SUCH AS PRECIPITATION OR FOG.

INZ001>027-280900-
NORTHERN INDIANA

CITY           SKY/WX    TMP DP  RH WIND       PRES   REMARKS
GARY*          PTCLDY    -3 -12  68 CALM      30.70S
VALPARAISO     PTCLDY    -7 -10  87 CALM      30.68S
MICHIGAN CITY* PTCLDY    -4 -13  65 CALM      30.69F
LAPORTE*       MOCLDY   -10 -15  77 CALM      30.68S
KNOX*            N/A     -6 -18  54 CALM      30.68F
SOUTH BEND     PTCLDY    -1  -8  72 SW3       30.68S
GOSHEN         MOCLDY    -6 -13  71 CALM      30.67S HAZE
MONTICELLO*    PTCLDY    -1  -4  87 CALM      30.68S
LOGANSPORT*    PTCLDY     0  -4  85 CALM      30.68F
ROCHESTER*     MOCLDY    -4  -8  84 CALM      30.69S
WARSAW*        MOCLDY    -2  -6  84 CALM      30.68S
ANGOLA*        CLEAR     -9 -15  77 CALM      30.66R
FORT WAYNE     PTCLDY     1  -3  83 CALM      30.68S
HUNTINGTON*    PTCLDY     0  -6  76 CALM      30.67F
PERU/GRISSOM   PTCLDY     0  -6  78 NE2       30.66F HAZE
MARION*        PTCLDY     0  -4  82 CALM      30.68S

$$
INZ028>050-280900-
CENTRAL INDIANA

CITY           SKY/WX    TMP DP  RH WIND       PRES   REMARKS
LAFAYETTE      PTCLDY     1  -5  75 CALM      30.69S
KOKOMO*        PTCLDY    -2  -6  84 CALM      30.67S
MUNCIE*        MOCLDY    -2  -5  87 CALM      30.66F
INDIANAPOLIS   MOCLDY     7   0  73 NE7       30.65S WCI  -5

$$
MIZ043>046-050>051-056>058-064>065-071>073-077>080-280900-
SOUTHWEST LOWER MICHIGAN

CITY           SKY/WX    TMP DP  RH WIND       PRES   REMARKS
BATTLE CREEK   CLEAR      2  -6  69 SW5       30.65R WCI  -8
BENTON HARBOR  PTCLDY     0  -5  79 S3        30.68R
COLDWATER*     FAIR      -5  -9  82 CALM      30.66R
HILLSDALE*     PTCLDY     0  -5  81 CALM      30.63R
HOLLAND        CLEAR      2  -3  80 S6        30.66R WCI  -9
GRAND RAPIDS   CLEAR      5  -2  72 SW9       30.64R WCI  -9
KALAMAZOO      PTCLDY    -2  -6  83 S5        30.66R WCI -12
STURGIS*       MOCLDY    -2  -8  78 CALM      30.66R
THREE RIVERS*  FAIR      -2  -6  83 SW3       30.68R

$$
OHZ001>008-015>018-024>025-280900-
NORTHWEST OHIO

CITY           SKY/WX    TMP DP  RH WIND       PRES   REMARKS
WAUSEON*       FAIR       0  -8  71 CALM      30.69R
DEFIANCE       PTCLDY    -4  -8  83 CALM      30.70R
FINDLAY        PTCLDY     1  -7  68 CALM      30.68R
TOLEDO EXPRESS PTCLDY    -5 -10  79 CALM      30.69R
TOLEDO METCALF PTCLDY    -1  -9  68 SW3       30.71R
LIMA           CLEAR      0  -8  69 S5        30.67R WCI -10

$$
AND FOR LAKE MICHIGAN COASTAL AND OPEN LAKE BUOY OBSERVATIONS

STATION/POSITION TEMP    WIND        PRES    VSBY  WAVE
                 AIR SEA DIR/SP/G                  HT/PER
                 (F)     (DEG/KT/KT) (MB)    (MI)  (FT/S)
CALUMET HARBOR     4     340/  3/  4 1037.7S
MICHIGAN CITY      4     170/  5/  6   N/A
SAINT JOSEPH       5     160/  6/ 11 1038.6F

$$
&&


USA.gov is the U.S. government's official web portal to all federal, state and local government web resources and services.